[[{"header":{"parameterUnit":"m.s-1","parameterCategory":1,"la1":30.2992,"la2":30.254,"lo1":-89.0895,"lo2":-89.0443,"dy":0.0025,"dx":0.0025,"nx":19,"ny":19,"refTime":"2026-04-07T21:00:00:Z","depth":0,"parameterNumber":2,"parameterNumberName":"U-component_of_WINDS"},"data":[0,0,0,-7.1813,-7.1817,-7.1975,-7.1975,-7.2214,-7.2217,0,0,0,0,0,0,0,0,0,0,0,-7.1789,-7.1791,-7.1813,-7.1817,-7.1975,-7.1975,-7.2214,-7.2217,0,0,0,0,0,0,0,0,0,0,0,-7.1788,-7.1791,-7.1794,-7.1818,-7.1975,-7.1975,-7.2213,-7.2081,0,0,0,0,0,0,0,0,0,0,-7.1922,-7.1921,-7.179,-7.1794,-7.1819,-7.1974,-7.1975,-7.2074,-7.209,-7.2159,0,-7.2227,0,-7.2226,-7.2235,-7.2236,0,0,0,-7.1801,-7.1909,-7.1931,-7.1794,-7.1821,-7.1974,-7.1899,-7.2082,-7.21,-7.218,-7.223,-7.2237,-7.223,-7.2237,-7.2238,-7.2695,-7.2698,0,0,-7.1792,-7.1829,-7.1919,-7.1943,-7.1921,-7.1894,-7.1904,-7.2092,-7.2149,-7.223,-7.2242,-7.2234,-7.2239,-7.2241,-7.2692,-7.2696,0,0,0,-7.1778,-7.1824,-7.1841,-7.1934,-7.196,-7.1899,-7.1911,-7.2141,-7.2143,-7.2245,-7.2237,-7.2241,-7.2244,-7.2689,-7.2694,-7.2875,0,0,0,-7.1772,-7.1816,-7.1838,-7.1862,-7.1957,-7.2052,-7.1956,-7.213,-7.215,-7.2235,-7.2241,-7.2247,-7.2686,-7.2692,-7.2863,-7.2954,0,0,0,-7.1771,-7.1815,-7.1846,-7.1864,-7.1933,-7.2048,-7.2061,-7.2134,-7.2146,-7.2237,-7.2247,-7.2684,-7.269,-7.2852,-7.2937,-7.3087,0,0,0,-7.178,-7.2004,-7.1849,-7.2096,-7.1932,-7.2159,-7.2059,-7.2226,-7.2325,-7.2242,-7.2686,-7.2693,-7.2849,-7.2926,-7.3076,-7.3221,-7.3284,0,0,-7.2083,-7.2042,-7.2184,-7.205,-7.2314,-7.2131,-7.2422,-7.2477,-7.2452,-7.2616,-7.2626,-7.2867,-7.2936,-7.3084,-7.3625,-7.3675,0,0,0,-7.2292,-7.2395,-7.2457,-7.2553,-7.26,-7.2649,-7.2655,-7.2676,-7.2813,-7.2543,-7.2959,-7.2999,-7.3085,-7.3153,-7.3196,-7.3268,-7.2726,-7.2725,-7.2724,-7.2775,-7.2731,-7.2963,-7.2938,-7.3033,-7.3037,-7.311,-7.3139,-7.3066,-7.3165,-7.3214,-7.3547,-7.3628,-7.366,-7.3736,-7.3285,-7.3286,-7.3287,-7.3287,-7.3216,-7.3356,-7.3253,-7.3443,-7.3395,-7.3553,-7.3567,-7.351,-7.3651,-7.3506,-7.3579,-7.3426,-7.3717,-7.3781,-7.33,-7.3298,-7.3296,-7.3295,-7.3294,-7.3529,-7.3588,-7.3609,-7.3744,-7.3853,-7.3819,-7.396,-7.391,-7.3865,-7.3937,-7.3984,-7.3981,-7.3973,-7.3963,-7.3964,-7.3965,-7.3966,-7.3967,-7.3968,-7.3846,-7.3864,-7.3988,-7.4058,-7.4113,-7.4181,-7.4188,-7.4242,-7.4289,-7.4242,-7.4242,-7.4161,-7.3753,-7.3653,-7.3986,-7.3982,-7.398,-7.3978,-7.3977,-7.4312,-7.4199,-7.4392,-7.4448,-7.4526,-7.4639,-7.4573,-7.4687,-7.4724,-7.4795,-7.4698,-7.4404,-7.4358,-7.4324,-7.4241,-7.4706,-7.4706,-7.4706,-7.4706,-7.4578,-7.4549,-7.4735,-7.4828,-7.4913,-7.4874,-7.5095,-7.5104,-7.5095,-7.5115,-7.504,-7.4925,-7.4892,-7.4866,-7.4819,-7.4741,-7.5323,-7.5323,-7.5324,-7.4863,-7.484,-7.5037,-7.5026,-7.5084,-7.5136,-7.5342,-7.5454,-7.542,-7.5348,-7.5131,-7.5105,-7.4918,-7.4859,-7.4784,-7.4713,-7.4568,0,0]},{"header":{"parameterUnit":"m.s-1","parameterCategory":1,"la1":30.2992,"la2":30.254,"lo1":-89.0895,"lo2":-89.0443,"dy":0.0025,"dx":0.0025,"nx":19,"ny":19,"refTime":"2026-04-07T21:00:00:Z","depth":0,"parameterNumber":3,"parameterNumberName":"V-component_of_WINDS"},"data":[0,0,0,-1.0497,-1.0498,-1.0569,-1.0569,-1.0657,-1.0657,0,0,0,0,0,0,0,0,0,0,0,-1.0474,-1.0474,-1.0496,-1.0498,-1.0569,-1.0569,-1.0657,-1.0657,0,0,0,0,0,0,0,0,0,0,0,-1.0473,-1.0474,-1.0475,-1.0498,-1.0569,-1.0569,-1.0656,-1.0604,0,0,0,0,0,0,0,0,0,0,-1.0536,-1.0513,-1.0474,-1.0475,-1.0499,-1.0569,-1.0569,-1.0602,-1.0607,-1.0623,0,-1.0637,0,-1.0648,-1.0663,-1.0663,0,0,0,-1.05,-1.0508,-1.0529,-1.0475,-1.0499,-1.0569,-1.0537,-1.0605,-1.0611,-1.0631,-1.0638,-1.0641,-1.065,-1.0664,-1.0664,-1.0748,-1.0749,0,0,-1.0496,-1.0486,-1.0524,-1.0533,-1.0522,-1.0535,-1.054,-1.0609,-1.0616,-1.0638,-1.0643,-1.0651,-1.0664,-1.0665,-1.0748,-1.0748,0,0,0,-1.0484,-1.0483,-1.0502,-1.0529,-1.0542,-1.0537,-1.0542,-1.0613,-1.062,-1.0644,-1.0652,-1.0665,-1.0666,-1.0748,-1.0748,-1.0753,0,0,0,-1.0481,-1.0476,-1.05,-1.0495,-1.0541,-1.0579,-1.0545,-1.0615,-1.0623,-1.0652,-1.0665,-1.0667,-1.0747,-1.0748,-1.0752,-1.0757,0,0,0,-1.047,-1.0474,-1.0484,-1.0494,-1.0524,-1.0578,-1.0589,-1.0617,-1.0628,-1.0663,-1.0667,-1.0747,-1.0748,-1.0751,-1.0756,-1.0775,0,0,0,-1.0455,-1.0488,-1.0484,-1.0524,-1.0523,-1.058,-1.0588,-1.0632,-1.0662,-1.0665,-1.0748,-1.0748,-1.0751,-1.0755,-1.0774,-1.0789,-1.0794,0,0,-1.0491,-1.0492,-1.0517,-1.0515,-1.0569,-1.057,-1.0626,-1.0664,-1.0678,-1.0724,-1.0726,-1.0752,-1.0756,-1.0775,-1.0829,-1.0833,0,0,0,-1.0525,-1.0542,-1.0559,-1.0587,-1.0617,-1.0642,-1.0673,-1.0687,-1.0726,-1.0699,-1.0765,-1.0768,-1.0779,-1.0787,-1.079,-1.0801,-1.0751,-1.0751,-1.0751,-1.0562,-1.0576,-1.0617,-1.0639,-1.0666,-1.0697,-1.072,-1.0744,-1.0752,-1.0767,-1.0781,-1.0812,-1.082,-1.0823,-1.0833,-1.079,-1.079,-1.079,-1.079,-1.0616,-1.0642,-1.0649,-1.0692,-1.0706,-1.0742,-1.0772,-1.0776,-1.0811,-1.0803,-1.0814,-1.0803,-1.0827,-1.0837,-1.0791,-1.0791,-1.0791,-1.0791,-1.0791,-1.0641,-1.0656,-1.0672,-1.0713,-1.0743,-1.0764,-1.0797,-1.081,-1.0822,-1.0833,-1.0848,-1.0848,-1.0849,-1.0839,-1.0839,-1.0839,-1.0839,-1.0839,-1.084,-1.0661,-1.0678,-1.0704,-1.0737,-1.0756,-1.0782,-1.0812,-1.0831,-1.0856,-1.0862,-1.0862,-1.0867,-1.0827,-1.0816,-1.0841,-1.0841,-1.0841,-1.0841,-1.084,-1.0709,-1.07,-1.074,-1.0758,-1.0797,-1.0825,-1.084,-1.0878,-1.0895,-1.0911,-1.0913,-1.0882,-1.0884,-1.0881,-1.0872,-1.0911,-1.0911,-1.0911,-1.0911,-1.073,-1.0732,-1.0774,-1.0803,-1.0833,-1.085,-1.0894,-1.0917,-1.094,-1.0952,-1.0948,-1.0937,-1.0934,-1.0938,-1.0934,-1.0926,-1.0978,-1.0978,-1.0978,-1.076,-1.0765,-1.08,-1.0821,-1.0852,-1.0878,-1.0919,-1.0952,-1.0976,-1.0981,-1.0961,-1.0958,-1.0941,-1.0935,-1.0939,-1.0932,-1.0918,0,0]}]]